sat.trackr.live / text

‹ back to catalog

STARLINK-35769

NORAD 66842 · 2025-280X

PAYLOAD ACTIVE UNKNOWN

§ Identity

Operator
Country
US
Launch date
2025-12-02
Launch site
AFWTR
Launch vehicle
Mass (kg)
RCS (m²)

Purposes: comms

External: N2YO · Heavens-Above · Gunter

§ Orbital elements

Epoch: 2026-05-25T03:42:49.371840Z

Period
96.11 min
Inclination
70.0006°
Eccentricity
0.0004115
Mean motion
14.98339788 rev/d
Perigee alt
569.2 km
Apogee alt
574.9 km
Semi-major
6,950.2 km
B*
2.8386e-4
RAAN
141.4984°
Arg perigee
264.7859°
Mean anomaly
95.2830°
Rev number
2,753

§ Raw data

STARLINK-357691 66842U 25280X   26145.15473810  .00003297  00000+0  28386-3 0  99902 66842  70.0006 141.4984 0004115 264.7859  95.2830 14.98339788 27538

JSON: /api/v1/satellites/66842 · /tle

For live sub-satellite position, see the globe view (requires WebGL).

§ Visibility from observer

Set your observer location to see the next 7 days of passes ≥ 10°. The values pass through the URL so the page stays shareable.

No JS? Fill the form by hand. The geolocation button needs JavaScript.